Location: Unspecified
(48.7670°N, 0.0000°E)
Time: 05:46:14
(UTC+00:00)

Altair - Pass Details

Date: 02 July 2019
Orbit: 1501 x 1683 km, 47.2° (Epoch: 17 July)

Event Time Altitude Azimuth Distance (km) Brightness Sun altitude
Rises 18:21:54 0° 248° (WSW) 4,661 10.8 14.3°
Reaches altitude 10° 18:24:53 10° 246° (WSW) 3,696 10.4 13.8°
Maximum altitude 18:34:12 74° 164° (SSE) 1,622 7.8 12.4°
Drops below altitude 10° 18:43:54 10° 82° (E) 3,842 9.1 10.9°
Sets 18:47:05 0° 81° (E) 4,852 9.6 10.4°
